Location: Caseificio
(44.7500°N, 11.0500°E)
Time: 23:35:51
(UTC+00:00)

SL-8 Rocket - Pass Details

Date: 26 May 2022
Orbit: 958 x 989 km, 82.9° (Epoch: 26 June)

Event Time Altitude Azimuth Distance (km) Brightness Sun altitude
Rises 02:45:12 0° 348° (NNW) 3,711 7.5 -8.3°
Reaches altitude 10° 02:47:46 10° 345° (NNW) 2,760 6.7 -8.0°
Maximum altitude 02:53:58 60° 268° (W) 1,124 4.1 -7.1°
Drops below altitude 10° 03:00:08 10° 189° (S) 2,739 5.9 -6.3°
Sets 03:02:40 0° 186° (S) 3,680 6.6 -5.9°
